Floro Airport


Codes: ENFL/FRO
Name: Floro Airport
City: Floro
Country: Norway
Elevation: 37 ft.
Website:
Wikipedia:

Photos at Floro Airport


   Photos courtesy of SpottingLog. You can add your own sightings and photos by signing up for a free trial today.



No photos found.

Weather at Floro Airport


Time (UTC)DescriptionTempratureWindCloud coverageVisibilityPressureHumidity
21-Jun-2024 12:00Broken Clouds15°C11 mph, SW75%10000m1013hPa63%
21-Jun-2024 15:00Broken Clouds14°C11 mph, S82%10000m1013hPa69%
21-Jun-2024 18:00Overcast Clouds13°C4 mph, S90%10000m1012hPa73%
21-Jun-2024 21:00Overcast Clouds13°C4 mph, SE99%10000m1011hPa75%
22-Jun-2024 00:00Overcast Clouds13°C4 mph, S100%10000m1010hPa77%
22-Jun-2024 03:00Overcast Clouds13°C4 mph, S100%10000m1010hPa74%
22-Jun-2024 06:00Overcast Clouds13°C7 mph, S100%10000m1010hPa75%
22-Jun-2024 09:00Broken Clouds13°C9 mph, SW77%10000m1010hPa79%
22-Jun-2024 12:00Broken Clouds13°C13 mph, SW80%10000m1011hPa85%
22-Jun-2024 15:00Overcast Clouds13°C11 mph, S99%10000m1010hPa86%
22-Jun-2024 18:00Overcast Clouds13°C9 mph, S96%10000m1010hPa86%
22-Jun-2024 21:00Broken Clouds13°C13 mph, S82%10000m1011hPa91%
23-Jun-2024 00:00Broken Clouds12°C13 mph, S68%10000m1011hPa90%
23-Jun-2024 03:00Overcast Clouds13°C16 mph, S98%10000m1011hPa87%
23-Jun-2024 06:00Light Rain12°C18 mph, S99%10000m1011hPa85%
23-Jun-2024 09:00Light Rain12°C18 mph, S100%8790m1013hPa90%
23-Jun-2024 12:00Light Rain12°C13 mph, S100%10000m1015hPa88%
23-Jun-2024 15:00Light Rain12°C11 mph, S99%10000m1017hPa77%
23-Jun-2024 18:00Light Rain12°C9 mph, SW90%10000m1018hPa81%
23-Jun-2024 21:00Scattered Clouds11°C9 mph, SW48%10000m1019hPa85%
24-Jun-2024 00:00Broken Clouds11°C11 mph, S70%10000m1020hPa84%
24-Jun-2024 03:00Scattered Clouds10°C11 mph, SE41%10000m1020hPa80%
24-Jun-2024 06:00Broken Clouds12°C9 mph, S59%10000m1020hPa73%
24-Jun-2024 09:00Scattered Clouds13°C7 mph, S40%10000m1019hPa70%
24-Jun-2024 12:00Broken Clouds13°C9 mph, SW53%10000m1019hPa74%
24-Jun-2024 15:00Scattered Clouds13°C9 mph, S43%10000m1019hPa76%
24-Jun-2024 18:00Scattered Clouds13°C9 mph, S28%10000m1018hPa73%
24-Jun-2024 21:00Broken Clouds13°C9 mph, S67%10000m1018hPa74%
25-Jun-2024 00:00Broken Clouds13°C9 mph, S81%10000m1018hPa73%
25-Jun-2024 03:00Overcast Clouds13°C11 mph, S99%10000m1017hPa73%
25-Jun-2024 06:00Overcast Clouds14°C11 mph, S98%10000m1017hPa72%
25-Jun-2024 09:00Overcast Clouds15°C13 mph, SW100%10000m1017hPa69%
25-Jun-2024 12:00Overcast Clouds15°C16 mph, S100%10000m1018hPa70%
25-Jun-2024 15:00Overcast Clouds15°C13 mph, SW89%10000m1018hPa73%
25-Jun-2024 18:00Broken Clouds14°C9 mph, S56%10000m1018hPa81%
25-Jun-2024 21:00Clear Sky14°C7 mph, SE9%10000m1017hPa81%
26-Jun-2024 00:00Clear Sky14°C4 mph, S9%10000m1017hPa77%
26-Jun-2024 03:00Clear Sky14°C4 mph, SE9%10000m1017hPa75%
26-Jun-2024 06:00Clear Sky14°C4 mph, S7%10000m1017hPa72%
26-Jun-2024 09:00Clear Sky15°C2 mph, SW0%10000m1017hPa72%